Tracking 18957 objects as of 23-Jan-2018
HD Live streaming from Space Station
objects crossing your sky now

FENGYUN 1C DEB

Track FENGYUN 1C DEB now!
10-day predictions


NORAD ID: 35217
Int'l Code: 1999-025DPZ
Perigee: 848.2 km
Apogee: 1,327.9 km
Inclination: 101.9 °
Period: 106.9 minutes
Semi major axis: 7459 km
RCS: 0.0015 m2 (small)
Launch date: May 10, 1999
Source: People's Republic of China (PRC)
Launch site: Taiyaun Space Center, China (TSC)

Note: This is SATELLITE DEBRIS
aabbcc
Your satellite tracking list
Your tracking list is empty




NASA's NSSDC Master Catalog

Two Line Element Set (TLE):
1 35217U 99025DPZ 18021.31484803  .00000500  00000-0  66325-3 0  9996
2 35217 101.8752  63.5727 0321514  48.8084 314.0297 13.47647033505826
Source of the keplerian elements: AFSPC